Tracking 31027 objects as of 19-Jul-2025
HD Live streaming from Space Station
objects crossing your sky now

COSMOS 252 DEB *

Track COSMOS 252 DEB * now!
10-day predictions


NORAD ID: 3901
Int'l Code: 1968-097BN
Perigee: 650.4 km
Apogee: 1,924.7 km
Inclination: 61.3 °
Period: 111.2 minutes
Semi major axis: 7658 km
RCS: 0.0068 m2 (small)
Launch date: November 1, 1968
Source: Commonwealth of Independent States (former USSR) (CIS)
Launch site: TYURATAM MISSILE AND SPACE COMPLEX (TTMTR)

Note: This is SATELLITE DEBRIS
Your satellite tracking list
GEOTAIL
Track 1 satellite(s)




NASA's NSSDC Master Catalog

Two Line Element Set (TLE):
1  3901U 68097BN  25199.83537029  .00000396  00000-0  34425-3 0  9995
2  3901  61.2725 297.6176 0831967 109.2150 260.0694 12.95346397652861
Source of the keplerian elements: AFSPC